Time,TemperatureF,DewpointF,PressureIn,WindDirection,WindDirectionDegrees,WindSpeedMPH,WindSpeedGustMPH,Humidity,HourlyPrecipIn,Conditions,Clouds,dailyrainin,SoftwareType,DateUTC
2013-10-11 00:00:00,60.8,59.4,29.93,NNW,338,1.0,1.0,95,0.00,,,0.08,Wunderground v.1.15,2013-10-11 04:00:00,
2013-10-11 00:05:00,60.8,59.4,29.93,NNW,333,0.0,1.0,95,0.00,,,0.00,Wunderground v.1.15,2013-10-11 04:05:00,
2013-10-11 00:10:00,60.8,59.4,29.93,North,360,1.0,1.0,95,0.00,,,0.00,Wunderground v.1.15,2013-10-11 04:10:00,
2013-10-11 00:15:00,60.8,59.4,29.93,North,360,1.0,1.0,95,0.00,,,0.00,Wunderground v.1.15,2013-10-11 04:15:00,
2013-10-11 00:20:00,60.8,59.4,29.93,NNW,329,0.0,0.0,95,0.00,,,0.00,Wunderground v.1.15,2013-10-11 04:20:00,
2013-10-11 00:24:00,60.8,59.4,29.92,North,352,1.0,1.0,95,0.00,,,0.00,Wunderground v.1.15,2013-10-11 04:24:00,
2013-10-11 00:30:00,60.8,59.4,29.92,NE,36,1.0,1.0,95,0.00,,,0.00,Wunderground v.1.15,2013-10-11 04:30:00,
2013-10-11 00:35:00,60.7,59.3,29.92,North,359,1.0,1.0,95,0.00,,,0.00,Wunderground v.1.15,2013-10-11 04:35:00,
2013-10-11 00:40:00,60.7,59.3,29.92,ENE,60,0.0,0.0,95,0.00,,,0.00,Wunderground v.1.15,2013-10-11 04:40:00,
2013-10-11 00:45:00,60.7,59.0,29.92,NNE,23,0.0,0.0,94,0.00,,,0.00,Wunderground v.1.15,2013-10-11 04:45:00,
2013-10-11 00:50:00,60.7,59.0,29.92,NE,36,0.0,0.0,94,0.00,,,0.00,Wunderground v.1.15,2013-10-11 04:50:00,
2013-10-11 01:00:00,60.7,59.3,29.92,ENE,64,0.0,0.0,95,0.00,,,0.00,Wunderground v.1.15,2013-10-11 05:00:00,
2013-10-11 01:10:00,60.7,59.0,29.92,NNW,339,1.0,1.0,94,0.00,,,0.00,Wunderground v.1.15,2013-10-11 05:10:00,
2013-10-11 01:20:00,60.7,59.0,29.92,ESE,107,0.0,0.0,94,0.00,,,0.00,Wunderground v.1.15,2013-10-11 05:20:00,
2013-10-11 01:25:00,60.7,59.0,29.92,West,276,1.0,3.0,94,0.00,,,0.00,Wunderground v.1.15,2013-10-11 05:25:00,
2013-10-11 01:30:00,60.6,58.9,29.92,West,279,1.0,1.0,94,0.00,,,0.00,Wunderground v.1.15,2013-10-11 05:30:00,
2013-10-11 01:35:00,60.6,58.9,29.91,NW,309,0.0,1.0,94,0.00,,,0.00,Wunderground v.1.15,2013-10-11 05:35:00,
2013-10-11 01:40:00,60.6,58.9,29.92,NW,306,1.0,1.0,94,0.00,,,0.00,Wunderground v.1.15,2013-10-11 05:40:00,
2013-10-11 01:45:00,60.6,58.9,29.92,NE,46,1.0,1.0,94,0.00,,,0.00,Wunderground v.1.15,2013-10-11 05:45:00,
2013-10-11 01:50:00,60.5,58.8,29.91,East,79,1.0,1.0,94,0.00,,,0.00,Wunderground v.1.15,2013-10-11 05:50:00,
2013-10-11 02:00:00,60.5,58.8,29.91,NE,46,1.0,1.0,94,0.00,,,0.00,Wunderground v.1.15,2013-10-11 06:00:00,
2013-10-11 02:10:00,60.4,58.7,29.91,North,357,1.0,1.0,94,0.00,,,0.00,Wunderground v.1.15,2013-10-11 06:10:00,
2013-10-11 02:20:00,60.4,58.7,29.91,NE,41,1.0,2.0,94,0.00,,,0.00,Wunderground v.1.15,2013-10-11 06:20:00,
2013-10-11 02:25:00,60.4,58.7,29.91,NW,323,1.0,2.0,94,0.00,,,0.00,Wunderground v.1.15,2013-10-11 06:25:00,
2013-10-11 02:35:00,60.4,58.7,29.91,North,353,0.0,1.0,94,0.00,,,0.00,Wunderground v.1.15,2013-10-11 06:35:00,
2013-10-11 02:40:00,60.4,58.7,29.91,NW,325,0.0,0.0,94,0.00,,,0.00,Wunderground v.1.15,2013-10-11 06:40:00,
2013-10-11 02:45:00,60.3,58.6,29.91,NNW,343,1.0,1.0,94,0.00,,,0.00,Wunderground v.1.15,2013-10-11 06:45:00,
2013-10-11 02:50:00,60.3,58.6,29.91,SW,225,1.0,1.0,94,0.00,,,0.00,Wunderground v.1.15,2013-10-11 06:50:00,
2013-10-11 02:55:00,60.3,58.6,29.91,North,356,1.0,1.0,94,0.00,,,0.00,Wunderground v.1.15,2013-10-11 06:55:00,
2013-10-11 03:00:00,60.3,58.6,29.91,NNW,328,1.0,1.0,94,0.00,,,0.00,Wunderground v.1.15,2013-10-11 07:00:00,
2013-10-11 03:10:00,60.2,58.5,29.91,ESE,110,1.0,1.0,94,0.00,,,0.00,Wunderground v.1.15,2013-10-11 07:10:00,
2013-10-11 03:20:00,60.2,58.5,29.91,North,360,1.0,1.0,94,0.00,,,0.00,Wunderground v.1.15,2013-10-11 07:20:00,
2013-10-11 03:25:00,60.2,58.5,29.90,NW,305,1.0,1.0,94,0.00,,,0.00,Wunderground v.1.15,2013-10-11 07:25:00,
2013-10-11 03:30:00,60.2,58.5,29.91,NE,46,1.0,1.0,94,0.00,,,0.00,Wunderground v.1.15,2013-10-11 07:30:00,
2013-10-11 03:35:00,60.2,58.5,29.90,NW,306,1.0,1.0,94,0.00,,,0.00,Wunderground v.1.15,2013-10-11 07:35:00,
2013-10-11 03:40:00,60.1,58.4,29.90,NW,314,1.0,1.0,94,0.00,,,0.00,Wunderground v.1.15,2013-10-11 07:40:00,
2013-10-11 03:50:00,60.2,58.5,29.90,NW,308,1.0,2.0,94,0.00,,,0.00,Wunderground v.1.15,2013-10-11 07:50:00,
2013-10-11 03:55:00,60.1,58.4,29.90,ESE,123,1.0,2.0,94,0.00,,,0.00,Wunderground v.1.15,2013-10-11 07:55:00,
2013-10-11 04:00:00,60.1,58.4,29.90,NNE,24,1.0,1.0,94,0.00,,,0.00,Wunderground v.1.15,2013-10-11 08:00:00,
2013-10-11 04:10:00,60.2,58.5,29.90,NE,41,1.0,1.0,94,0.00,,,0.00,Wunderground v.1.15,2013-10-11 08:10:00,
2013-10-11 04:15:00,60.1,58.1,29.90,North,349,1.0,1.0,93,0.00,,,0.00,Wunderground v.1.15,2013-10-11 08:15:00,
2013-10-11 04:25:00,60.2,58.5,29.90,NNW,345,1.0,1.0,94,0.00,,,0.00,Wunderground v.1.15,2013-10-11 08:25:00,
2013-10-11 04:30:00,60.2,58.2,29.91,NW,312,0.0,0.0,93,0.00,,,0.00,Wunderground v.1.15,2013-10-11 08:30:00,
2013-10-11 04:35:00,60.2,58.2,29.91,SSW,212,0.0,2.0,93,0.00,,,0.00,Wunderground v.1.15,2013-10-11 08:35:00,
2013-10-11 04:40:00,60.2,58.2,29.91,ENE,59,1.0,2.0,93,0.00,,,0.00,Wunderground v.1.15,2013-10-11 08:40:00,
2013-10-11 04:45:00,60.2,58.2,29.91,WNW,295,1.0,2.0,93,0.00,,,0.00,Wunderground v.1.15,2013-10-11 08:45:00,
2013-10-11 04:50:00,60.2,58.2,29.91,West,274,1.0,1.0,93,0.00,,,0.00,Wunderground v.1.15,2013-10-11 08:50:00,
2013-10-11 05:00:00,60.2,58.2,29.91,WNW,296,1.0,1.0,93,0.00,,,0.00,Wunderground v.1.15,2013-10-11 09:00:00,
2013-10-11 05:10:00,60.3,58.3,29.92,WNW,299,1.0,1.0,93,0.00,,,0.00,Wunderground v.1.15,2013-10-11 09:10:00,
2013-10-11 05:15:00,60.3,58.3,29.92,NNW,347,1.0,1.0,93,0.00,,,0.00,Wunderground v.1.15,2013-10-11 09:15:00,
2013-10-11 05:24:00,60.3,58.3,29.92,NE,36,1.0,1.0,93,0.00,,,0.00,Wunderground v.1.15,2013-10-11 09:24:00,
2013-10-11 05:30:00,60.3,58.3,29.92,NW,315,1.0,1.0,93,0.00,,,0.00,Wunderground v.1.15,2013-10-11 09:30:00,
2013-10-11 05:35:00,60.3,58.3,29.92,WNW,290,0.0,1.0,93,0.00,,,0.00,Wunderground v.1.15,2013-10-11 09:35:00,
2013-10-11 05:40:00,60.3,58.3,29.92,WNW,295,1.0,1.0,93,0.00,,,0.00,Wunderground v.1.15,2013-10-11 09:40:00,
2013-10-11 05:45:00,60.3,58.3,29.92,WNW,302,1.0,1.0,93,0.00,,,0.00,Wunderground v.1.15,2013-10-11 09:45:00,
2013-10-11 05:55:00,60.3,58.3,29.93,NW,304,0.0,1.0,93,0.00,,,0.00,Wunderground v.1.15,2013-10-11 09:55:00,
2013-10-11 06:00:00,60.3,58.3,29.93,NW,304,0.0,0.0,93,0.00,,,0.00,Wunderground v.1.15,2013-10-11 10:00:00,
2013-10-11 06:09:00,60.3,58.3,29.93,NW,304,0.0,0.0,93,0.00,,,0.00,Wunderground v.1.15,2013-10-11 10:09:00,
2013-10-11 06:15:00,60.4,58.4,29.93,NW,304,0.0,0.0,93,0.00,,,0.00,Wunderground v.1.15,2013-10-11 10:15:00,
2013-10-11 06:20:00,60.3,58.3,29.93,NW,314,0.0,0.0,93,0.00,,,0.00,Wunderground v.1.15,2013-10-11 10:20:00,
2013-10-11 06:25:00,60.3,58.3,29.93,WNW,297,0.0,0.0,93,0.00,,,0.00,Wunderground v.1.15,2013-10-11 10:25:00,
2013-10-11 06:30:00,60.3,58.3,29.93,NNW,334,0.0,1.0,93,0.00,,,0.00,Wunderground v.1.15,2013-10-11 10:30:00,
2013-10-11 06:35:00,60.3,58.3,29.93,NNW,334,0.0,1.0,93,0.00,,,0.00,Wunderground v.1.15,2013-10-11 10:35:00,
2013-10-11 06:45:00,60.3,58.0,29.93,West,275,0.0,1.0,92,0.00,,,0.00,Wunderground v.1.15,2013-10-11 10:45:00,
2013-10-11 06:50:00,60.3,58.3,29.93,West,275,0.0,0.0,93,0.00,,,0.00,Wunderground v.1.15,2013-10-11 10:50:00,
2013-10-11 06:55:00,60.3,58.3,29.93,West,275,0.0,0.0,93,0.00,,,0.00,Wunderground v.1.15,2013-10-11 10:55:00,
2013-10-11 07:00:00,60.3,58.0,29.94,WNW,287,0.0,1.0,92,0.00,,,0.00,Wunderground v.1.15,2013-10-11 11:00:00,
2013-10-11 07:10:00,60.3,58.0,29.93,SW,221,0.0,0.0,92,0.00,,,0.00,Wunderground v.1.15,2013-10-11 11:10:00,
2013-10-11 07:15:00,60.3,58.3,29.93,SW,221,0.0,0.0,93,0.00,,,0.00,Wunderground v.1.15,2013-10-11 11:15:00,
2013-10-11 07:25:00,60.3,58.3,29.93,SW,221,0.0,0.0,93,0.00,,,0.00,Wunderground v.1.15,2013-10-11 11:25:00,
2013-10-11 07:30:00,60.3,58.3,29.94,SW,221,0.0,0.0,93,0.00,,,0.00,Wunderground v.1.15,2013-10-11 11:30:00,
2013-10-11 07:35:00,60.3,58.3,29.94,SW,221,0.0,0.0,93,0.00,,,0.00,Wunderground v.1.15,2013-10-11 11:35:00,
2013-10-11 07:40:00,60.3,58.3,29.94,SW,221,0.0,0.0,93,0.00,,,0.00,Wunderground v.1.15,2013-10-11 11:40:00,
2013-10-11 07:49:00,60.3,58.3,29.94,SW,221,0.0,0.0,93,0.00,,,0.00,Wunderground v.1.15,2013-10-11 11:49:00,
2013-10-11 07:55:00,60.3,58.3,29.94,SW,221,0.0,0.0,93,0.00,,,0.00,Wunderground v.1.15,2013-10-11 11:55:00,
2013-10-11 08:00:00,60.4,58.4,29.94,SW,221,0.0,0.0,93,0.00,,,0.00,Wunderground v.1.15,2013-10-11 12:00:00,
2013-10-11 08:10:00,60.4,58.4,29.94,SW,221,0.0,0.0,93,0.00,,,0.00,Wunderground v.1.15,2013-10-11 12:10:00,
2013-10-11 08:15:00,60.5,58.5,29.94,SW,221,0.0,0.0,93,0.00,,,0.00,Wunderground v.1.15,2013-10-11 12:15:00,
2013-10-11 08:20:00,60.5,58.8,29.94,WSW,252,0.0,0.0,94,0.00,,,0.00,Wunderground v.1.15,2013-10-11 12:20:00,
2013-10-11 08:25:00,60.7,59.0,29.94,WSW,252,0.0,1.0,94,0.00,,,0.00,Wunderground v.1.15,2013-10-11 12:25:00,
2013-10-11 08:30:00,60.7,59.0,29.94,WSW,252,0.0,0.0,94,0.00,,,0.00,Wunderground v.1.15,2013-10-11 12:30:00,
2013-10-11 08:39:00,60.9,58.9,29.95,WSW,252,0.0,0.0,93,0.00,,,0.00,Wunderground v.1.15,2013-10-11 12:39:00,
2013-10-11 08:45:00,61.0,59.0,29.95,WSW,252,0.0,0.0,93,0.00,,,0.00,Wunderground v.1.15,2013-10-11 12:45:00,
2013-10-11 08:50:00,61.2,59.5,29.95,WSW,252,0.0,1.0,94,0.00,,,0.00,Wunderground v.1.15,2013-10-11 12:50:00,
2013-10-11 08:55:00,61.4,59.7,29.95,WSW,252,0.0,1.0,94,0.00,,,0.00,Wunderground v.1.15,2013-10-11 12:55:00,
2013-10-11 09:00:00,61.5,59.8,29.95,WNW,292,0.0,2.0,94,0.00,,,0.00,Wunderground v.1.15,2013-10-11 13:00:00,
2013-10-11 09:10:00,61.9,59.9,29.95,WNW,291,1.0,1.0,93,0.00,,,0.00,Wunderground v.1.15,2013-10-11 13:10:00,
2013-10-11 09:15:00,62.1,60.1,29.95,NNW,327,1.0,1.0,93,0.00,,,0.00,Wunderground v.1.15,2013-10-11 13:15:00,
2013-10-11 09:20:00,62.4,60.0,29.95,West,277,1.0,1.0,92,0.00,,,0.00,Wunderground v.1.15,2013-10-11 13:20:00,
2013-10-11 09:25:00,62.7,60.0,29.95,WNW,300,1.0,1.0,91,0.00,,,0.00,Wunderground v.1.15,2013-10-11 13:25:00,
2013-10-11 09:35:00,63.5,60.2,29.95,ESE,106,1.0,2.0,89,0.00,,,0.00,Wunderground v.1.15,2013-10-11 13:35:00,
2013-10-11 09:40:00,63.7,60.7,29.95,North,10,1.0,1.0,90,0.00,,,0.00,Wunderground v.1.15,2013-10-11 13:40:00,
2013-10-11 09:45:00,63.7,60.1,29.95,SSW,205,1.0,1.0,88,0.00,,,0.00,Wunderground v.1.15,2013-10-11 13:45:00,
2013-10-11 09:50:00,64.0,60.7,29.96,NNE,14,1.0,1.0,89,0.00,,,0.00,Wunderground v.1.15,2013-10-11 13:50:00,
2013-10-11 09:55:00,64.1,60.8,29.95,NNW,334,1.0,1.0,89,0.00,,,0.00,Wunderground v.1.15,2013-10-11 13:55:00,
2013-10-11 10:00:00,64.3,60.7,29.95,East,92,1.0,1.0,88,0.00,,,0.00,Wunderground v.1.15,2013-10-11 14:00:00,
2013-10-11 10:10:00,64.6,60.6,29.95,NE,41,1.0,1.0,87,0.00,,,0.00,Wunderground v.1.15,2013-10-11 14:10:00,
2013-10-11 10:15:00,64.6,60.3,29.95,West,277,1.0,1.0,86,0.00,,,0.00,Wunderground v.1.15,2013-10-11 14:15:00,
2013-10-11 10:20:00,64.8,60.8,29.95,WNW,296,1.0,1.0,87,0.00,,,0.00,Wunderground v.1.15,2013-10-11 14:20:00,
2013-10-11 10:30:00,65.0,61.4,29.95,West,272,1.0,1.0,88,0.00,,,0.00,Wunderground v.1.15,2013-10-11 14:30:00,
2013-10-11 10:35:00,65.3,61.0,29.95,West,265,2.0,5.0,86,0.00,,,0.00,Wunderground v.1.15,2013-10-11 14:35:00,
2013-10-11 10:40:00,65.5,61.2,29.95,NNE,19,2.0,2.0,86,0.00,,,0.00,Wunderground v.1.15,2013-10-11 14:40:00,
2013-10-11 10:45:00,65.5,60.9,29.95,East,79,2.0,2.0,85,0.00,,,0.00,Wunderground v.1.15,2013-10-11 14:45:00,
2013-10-11 10:50:00,65.5,61.2,29.95,WNW,289,2.0,4.0,86,0.00,,,0.00,Wunderground v.1.15,2013-10-11 14:50:00,
2013-10-11 10:55:00,65.7,61.1,29.95,NE,46,2.0,4.0,85,0.00,,,0.00,Wunderground v.1.15,2013-10-11 14:55:00,
2013-10-11 11:00:00,65.9,60.9,29.95,NW,304,1.0,1.0,84,0.00,,,0.00,Wunderground v.1.15,2013-10-11 15:00:00,
2013-10-11 11:10:00,66.1,61.1,29.96,West,266,1.0,1.0,84,0.00,,,0.00,Wunderground v.1.15,2013-10-11 15:10:00,
2013-10-11 11:15:00,66.2,61.6,29.95,NNE,19,2.0,2.0,85,0.00,,,0.00,Wunderground v.1.15,2013-10-11 15:15:00,
2013-10-11 11:25:00,66.8,61.5,29.95,ESE,110,1.0,2.0,83,0.00,,,0.00,Wunderground v.1.15,2013-10-11 15:25:00,
2013-10-11 11:30:00,66.9,60.9,29.95,NW,307,1.0,1.0,81,0.00,,,0.00,Wunderground v.1.15,2013-10-11 15:30:00,
2013-10-11 11:35:00,67.1,61.8,29.95,WNW,297,1.0,1.0,83,0.00,,,0.00,Wunderground v.1.15,2013-10-11 15:35:00,
2013-10-11 11:40:00,67.2,61.9,29.95,North,359,1.0,1.0,83,0.00,,,0.00,Wunderground v.1.15,2013-10-11 15:40:00,
2013-10-11 11:50:00,67.4,61.7,29.95,ENE,70,1.0,1.0,82,0.00,,,0.00,Wunderground v.1.15,2013-10-11 15:50:00,
2013-10-11 11:55:00,67.8,61.8,29.95,NW,312,1.0,1.0,81,0.00,,,0.00,Wunderground v.1.15,2013-10-11 15:55:00,
2013-10-11 12:00:00,67.9,62.5,29.94,WSW,254,2.0,2.0,83,0.00,,,0.00,Wunderground v.1.15,2013-10-11 16:00:00,
2013-10-11 12:09:00,67.8,62.1,29.94,North,9,2.0,2.0,82,0.00,,,0.00,Wunderground v.1.15,2013-10-11 16:09:00,
2013-10-11 12:14:00,68.2,62.1,29.94,West,275,1.0,2.0,81,0.00,,,0.00,Wunderground v.1.15,2013-10-11 16:14:00,
2013-10-11 12:20:00,68.4,63.4,29.94,North,8,1.0,1.0,84,0.00,,,0.00,Wunderground v.1.15,2013-10-11 16:20:00,
2013-10-11 12:25:00,68.2,62.8,29.94,East,81,1.0,1.0,83,0.00,,,0.00,Wunderground v.1.15,2013-10-11 16:25:00,
2013-10-11 12:30:00,68.0,62.6,29.94,ENE,72,1.0,1.0,83,0.00,,,0.00,Wunderground v.1.15,2013-10-11 16:30:00,
2013-10-11 12:35:00,67.6,61.9,29.94,NE,41,0.0,2.0,82,0.00,,,0.00,Wunderground v.1.15,2013-10-11 16:35:00,
2013-10-11 12:40:00,67.6,62.9,29.94,NE,41,0.0,0.0,85,0.00,,,0.00,Wunderground v.1.15,2013-10-11 16:40:00,
2013-10-11 12:50:00,67.6,62.6,29.94,WSW,237,0.0,0.0,84,0.00,,,0.00,Wunderground v.1.15,2013-10-11 16:50:00,
2013-10-11 12:55:00,67.5,63.2,29.94,WSW,239,0.0,0.0,86,0.00,,,0.00,Wunderground v.1.15,2013-10-11 16:55:00,
2013-10-11 13:00:00,67.5,62.5,29.94,WSW,239,0.0,0.0,84,0.00,,,0.00,Wunderground v.1.15,2013-10-11 17:00:00,
2013-10-11 13:10:00,67.8,62.8,29.93,West,281,0.0,2.0,84,0.00,,,0.00,Wunderground v.1.15,2013-10-11 17:10:00,
2013-10-11 13:15:00,68.0,63.0,29.93,WNW,302,1.0,2.0,84,0.00,,,0.00,Wunderground v.1.15,2013-10-11 17:15:00,
2013-10-11 13:20:00,68.1,62.7,29.93,North,7,1.0,1.0,83,0.00,,,0.00,Wunderground v.1.15,2013-10-11 17:20:00,
2013-10-11 13:25:00,68.2,62.5,29.93,NW,314,0.0,1.0,82,0.00,,,0.00,Wunderground v.1.15,2013-10-11 17:25:00,
2013-10-11 13:30:00,68.3,63.3,29.93,NW,320,0.0,0.0,84,0.00,,,0.00,Wunderground v.1.15,2013-10-11 17:30:00,
2013-10-11 13:35:00,68.3,63.3,29.93,SE,124,1.0,1.0,84,0.00,,,0.00,Wunderground v.1.15,2013-10-11 17:35:00,
2013-10-11 13:40:00,68.5,63.1,29.92,SSW,210,0.0,0.0,83,0.00,,,0.00,Wunderground v.1.15,2013-10-11 17:40:00,
2013-10-11 13:50:00,68.9,63.2,29.92,WNW,301,1.0,1.0,82,0.00,,,0.00,Wunderground v.1.15,2013-10-11 17:50:00,
2013-10-11 13:55:00,69.2,63.1,29.92,NNE,21,1.0,1.0,81,0.00,,,0.00,Wunderground v.1.15,2013-10-11 17:55:00,
2013-10-11 14:00:00,69.4,63.7,29.92,NNE,16,1.0,2.0,82,0.00,,,0.00,Wunderground v.1.15,2013-10-11 18:00:00,
2013-10-11 14:10:00,68.8,63.1,29.91,NNW,332,1.0,1.0,82,0.00,,,0.00,Wunderground v.1.15,2013-10-11 18:10:00,
2013-10-11 14:20:00,70.1,63.6,29.91,NW,315,1.0,1.0,80,0.00,,,0.00,Wunderground v.1.15,2013-10-11 18:20:00,
2013-10-11 14:25:00,70.6,64.8,29.91,SW,225,1.0,2.0,82,0.00,,,0.00,Wunderground v.1.15,2013-10-11 18:25:00,
2013-10-11 14:30:00,70.5,64.7,29.90,North,10,1.0,1.0,82,0.00,,,0.00,Wunderground v.1.15,2013-10-11 18:30:00,
2013-10-11 14:35:00,69.9,63.4,29.90,North,358,1.0,1.0,80,0.00,,,0.00,Wunderground v.1.15,2013-10-11 18:35:00,
2013-10-11 14:40:00,69.7,62.9,29.90,NNE,17,1.0,1.0,79,0.00,,,0.00,Wunderground v.1.15,2013-10-11 18:40:00,
2013-10-11 14:50:00,69.5,63.1,29.90,NNW,337,1.0,1.0,80,0.00,,,0.00,Wunderground v.1.15,2013-10-11 18:50:00,
2013-10-11 14:55:00,69.7,63.6,29.90,NNW,335,0.0,1.0,81,0.00,,,0.00,Wunderground v.1.15,2013-10-11 18:55:00,
2013-10-11 15:00:00,70.1,63.6,29.90,WSW,253,1.0,2.0,80,0.00,,,0.00,Wunderground v.1.15,2013-10-11 19:00:00,
2013-10-11 15:10:00,70.1,63.3,29.90,WNW,283,1.0,1.0,79,0.00,,,0.00,Wunderground v.1.15,2013-10-11 19:10:00,
2013-10-11 15:20:00,69.3,63.2,29.90,WNW,287,0.0,0.0,81,0.00,,,0.00,Wunderground v.1.15,2013-10-11 19:20:00,
2013-10-11 15:25:00,69.1,64.1,29.90,WNW,287,0.0,0.0,84,0.00,,,0.00,Wunderground v.1.15,2013-10-11 19:25:00,
2013-10-11 15:30:00,69.1,64.4,29.90,WNW,287,0.0,0.0,85,0.00,,,0.00,Wunderground v.1.15,2013-10-11 19:30:00,
2013-10-11 15:35:00,69.0,63.6,29.90,WNW,287,0.0,0.0,83,0.00,,,0.00,Wunderground v.1.15,2013-10-11 19:35:00,
2013-10-11 15:40:00,69.1,63.7,29.91,WNW,287,0.0,0.0,83,0.00,,,0.00,Wunderground v.1.15,2013-10-11 19:40:00,
2013-10-11 15:45:00,69.2,63.5,29.91,WNW,287,0.0,0.0,82,0.00,,,0.00,Wunderground v.1.15,2013-10-11 19:45:00,
2013-10-11 15:55:00,69.2,63.8,29.91,WNW,287,0.0,1.0,83,0.00,,,0.00,Wunderground v.1.15,2013-10-11 19:55:00,
2013-10-11 16:00:00,69.0,63.6,29.91,NNE,14,0.0,0.0,83,0.00,,,0.00,Wunderground v.1.15,2013-10-11 20:00:00,
2013-10-11 16:10:00,69.2,64.2,29.91,NNE,14,0.0,0.0,84,0.00,,,0.00,Wunderground v.1.15,2013-10-11 20:10:00,
2013-10-11 16:15:00,69.3,64.3,29.91,NNE,14,0.0,0.0,84,0.00,,,0.00,Wunderground v.1.15,2013-10-11 20:15:00,
2013-10-11 16:20:00,69.1,64.1,29.91,NNE,14,0.0,0.0,84,0.00,,,0.00,Wunderground v.1.15,2013-10-11 20:20:00,
2013-10-11 16:25:00,69.3,63.9,29.90,NNE,14,0.0,0.0,83,0.00,,,0.00,Wunderground v.1.15,2013-10-11 20:25:00,
2013-10-11 16:30:00,69.2,64.5,29.90,NNE,14,0.0,0.0,85,0.00,,,0.00,Wunderground v.1.15,2013-10-11 20:30:00,
2013-10-11 16:35:00,69.2,64.2,29.90,NNE,14,0.0,0.0,84,0.00,,,0.00,Wunderground v.1.15,2013-10-11 20:35:00,
2013-10-11 16:45:00,68.7,64.7,29.91,NNE,14,0.0,0.0,87,0.00,,,0.00,Wunderground v.1.15,2013-10-11 20:45:00,
2013-10-11 16:50:00,68.6,64.2,29.91,NNE,14,0.0,0.0,86,0.00,,,0.00,Wunderground v.1.15,2013-10-11 20:50:00,
2013-10-11 16:55:00,68.3,64.9,29.91,NNE,14,0.0,0.0,89,0.00,,,0.00,Wunderground v.1.15,2013-10-11 20:55:00,
2013-10-11 17:00:00,67.9,64.5,29.91,NNE,14,0.0,1.0,89,0.00,,,0.00,Wunderground v.1.15,2013-10-11 21:00:00,
2013-10-11 17:10:00,67.8,64.1,29.91,NNE,14,0.0,0.0,88,0.00,,,0.00,Wunderground v.1.15,2013-10-11 21:10:00,
2013-10-11 17:15:00,67.9,64.2,29.91,NNE,14,0.0,0.0,88,0.00,,,0.00,Wunderground v.1.15,2013-10-11 21:15:00,
2013-10-11 17:25:00,67.9,64.2,29.91,NNE,14,0.0,0.0,88,0.00,,,0.00,Wunderground v.1.15,2013-10-11 21:25:00,
2013-10-11 17:30:00,67.7,63.4,29.91,East,99,1.0,1.0,86,0.00,,,0.00,Wunderground v.1.15,2013-10-11 21:30:00,
2013-10-11 17:35:00,67.6,62.9,29.91,NNW,345,1.0,1.0,85,0.00,,,0.00,Wunderground v.1.15,2013-10-11 21:35:00,
2013-10-11 17:40:00,67.3,63.3,29.91,WNW,287,1.0,1.0,87,0.00,,,0.00,Wunderground v.1.15,2013-10-11 21:40:00,
2013-10-11 17:45:00,67.1,63.1,29.91,NW,318,0.0,1.0,87,0.00,,,0.00,Wunderground v.1.15,2013-10-11 21:45:00,
2013-10-11 17:50:00,66.9,62.9,29.91,NW,318,0.0,0.0,87,0.00,,,0.00,Wunderground v.1.15,2013-10-11 21:50:00,
2013-10-11 18:00:00,66.5,63.2,29.91,NW,318,0.0,0.0,89,0.00,,,0.00,Wunderground v.1.15,2013-10-11 22:00:00,
2013-10-11 18:09:00,66.3,63.3,29.92,NW,318,0.0,0.0,90,0.00,,,0.00,Wunderground v.1.15,2013-10-11 22:09:00,
2013-10-11 18:15:00,66.1,63.4,29.92,NW,318,0.0,0.0,91,0.00,,,0.00,Wunderground v.1.15,2013-10-11 22:15:00,
2013-10-11 18:20:00,65.9,63.2,29.91,NW,318,0.0,0.0,91,0.00,,,0.00,Wunderground v.1.15,2013-10-11 22:20:00,
2013-10-11 18:25:00,65.6,63.2,29.92,NW,318,0.0,0.0,92,0.00,,,0.00,Wunderground v.1.15,2013-10-11 22:25:00,
2013-10-11 18:30:00,65.5,63.1,29.92,NW,318,0.0,0.0,92,0.00,,,0.00,Wunderground v.1.15,2013-10-11 22:30:00,
2013-10-11 18:35:00,65.5,63.4,29.92,NW,318,0.0,0.0,93,0.00,,,0.00,Wunderground v.1.15,2013-10-11 22:35:00,
2013-10-11 18:40:00,65.4,63.3,29.92,NW,318,0.0,0.0,93,0.00,,,0.00,Wunderground v.1.15,2013-10-11 22:40:00,
2013-10-11 18:49:00,65.2,63.1,29.92,NW,318,0.0,0.0,93,0.00,,,0.00,Wunderground v.1.15,2013-10-11 22:49:00,
2013-10-11 18:55:00,65.0,63.2,29.92,NW,318,0.0,0.0,94,0.00,,,0.00,Wunderground v.1.15,2013-10-11 22:55:00,
2013-10-11 19:00:00,64.9,63.4,29.92,NW,318,0.0,0.0,95,0.00,,,0.00,Wunderground v.1.15,2013-10-11 23:00:00,
2013-10-11 19:10:00,64.7,63.2,29.92,NW,318,0.0,0.0,95,0.00,,,0.00,Wunderground v.1.15,2013-10-11 23:10:00,
2013-10-11 19:15:00,64.6,63.1,29.92,NW,318,0.0,0.0,95,0.00,,,0.00,Wunderground v.1.15,2013-10-11 23:15:00,
2013-10-11 19:20:00,64.5,63.3,29.92,NW,318,0.0,0.0,96,0.00,,,0.00,Wunderground v.1.15,2013-10-11 23:20:00,
2013-10-11 19:25:00,64.5,63.3,29.92,NW,318,0.0,0.0,96,0.00,,,0.00,Wunderground v.1.15,2013-10-11 23:25:00,
2013-10-11 19:30:00,64.5,63.3,29.93,NW,318,0.0,0.0,96,0.00,,,0.00,Wunderground v.1.15,2013-10-11 23:30:00,
2013-10-11 19:35:00,64.5,63.3,29.93,NW,318,0.0,0.0,96,0.00,,,0.00,Wunderground v.1.15,2013-10-11 23:35:00,
2013-10-11 19:45:00,64.4,63.2,29.93,NW,318,0.0,0.0,96,0.00,,,0.00,Wunderground v.1.15,2013-10-11 23:45:00,
2013-10-11 19:50:00,64.4,63.2,29.93,NW,318,0.0,0.0,96,0.00,,,0.00,Wunderground v.1.15,2013-10-11 23:50:00,
2013-10-11 19:55:00,64.4,63.2,29.93,NW,318,0.0,0.0,96,0.00,,,0.00,Wunderground v.1.15,2013-10-11 23:55:00,
2013-10-11 20:00:00,64.3,63.1,29.93,NW,318,0.0,0.0,96,0.00,,,0.00,Wunderground v.1.15,2013-10-12 00:00:00,
2013-10-11 20:10:00,64.3,63.1,29.94,NW,318,0.0,0.0,96,0.00,,,0.00,Wunderground v.1.15,2013-10-12 00:10:00,
2013-10-11 20:15:00,64.2,63.0,29.94,NW,318,0.0,0.0,96,0.00,,,0.00,Wunderground v.1.15,2013-10-12 00:15:00,
2013-10-11 20:25:00,64.2,63.0,29.94,NW,318,0.0,0.0,96,0.00,,,0.00,Wunderground v.1.15,2013-10-12 00:25:00,
2013-10-11 20:30:00,64.1,62.9,29.94,NW,318,0.0,0.0,96,0.00,,,0.00,Wunderground v.1.15,2013-10-12 00:30:00,
2013-10-11 20:35:00,64.1,62.9,29.94,NW,318,0.0,0.0,96,0.00,,,0.00,Wunderground v.1.15,2013-10-12 00:35:00,
2013-10-11 20:45:00,63.9,62.7,29.94,NW,318,0.0,0.0,96,0.00,,,0.00,Wunderground v.1.15,2013-10-12 00:45:00,
2013-10-11 20:50:00,63.9,63.0,29.94,NW,318,0.0,0.0,97,0.00,,,0.00,Wunderground v.1.15,2013-10-12 00:50:00,
2013-10-11 20:55:00,63.9,63.0,29.94,NW,318,0.0,0.0,97,0.00,,,0.00,Wunderground v.1.15,2013-10-12 00:55:00,
2013-10-11 21:00:00,64.0,62.8,29.94,NW,318,0.0,0.0,96,0.00,,,0.00,Wunderground v.1.15,2013-10-12 01:00:00,
2013-10-11 21:10:00,64.0,62.8,29.94,NW,318,0.0,0.0,96,0.00,,,0.00,Wunderground v.1.15,2013-10-12 01:10:00,
2013-10-11 21:15:00,64.0,62.8,29.94,NW,318,0.0,0.0,96,0.00,,,0.00,Wunderground v.1.15,2013-10-12 01:15:00,
2013-10-11 21:24:00,64.0,62.8,29.94,NW,318,0.0,0.0,96,0.00,,,0.00,Wunderground v.1.15,2013-10-12 01:24:00,
2013-10-11 21:30:00,64.0,62.8,29.94,NW,318,0.0,0.0,96,0.00,,,0.00,Wunderground v.1.15,2013-10-12 01:30:00,
2013-10-11 21:35:00,64.0,62.8,29.95,NW,318,0.0,0.0,96,0.00,,,0.00,Wunderground v.1.15,2013-10-12 01:35:00,
2013-10-11 21:40:00,64.0,62.8,29.95,NW,318,0.0,0.0,96,0.00,,,0.00,Wunderground v.1.15,2013-10-12 01:40:00,
2013-10-11 21:45:00,64.0,62.8,29.95,NW,318,0.0,0.0,96,0.00,,,0.00,Wunderground v.1.15,2013-10-12 01:45:00,
2013-10-11 21:50:00,63.9,62.7,29.95,NW,318,0.0,0.0,96,0.00,,,0.00,Wunderground v.1.15,2013-10-12 01:50:00,
2013-10-11 22:00:00,63.9,62.7,29.95,NW,318,0.0,0.0,96,0.00,,,0.00,Wunderground v.1.15,2013-10-12 02:00:00,
2013-10-11 22:09:00,63.9,62.7,29.95,NW,318,0.0,0.0,96,0.00,,,0.00,Wunderground v.1.15,2013-10-12 02:09:00,
2013-10-11 22:15:00,63.9,62.7,29.95,NW,318,0.0,0.0,96,0.00,,,0.00,Wunderground v.1.15,2013-10-12 02:15:00,
2013-10-11 22:20:00,63.8,62.6,29.95,NW,318,0.0,0.0,96,0.00,,,0.00,Wunderground v.1.15,2013-10-12 02:20:00,
2013-10-11 22:25:00,63.8,62.6,29.95,NW,318,0.0,0.0,96,0.00,,,0.00,Wunderground v.1.15,2013-10-12 02:25:00,
2013-10-11 22:30:00,63.8,62.6,29.95,NW,318,0.0,0.0,96,0.00,,,0.00,Wunderground v.1.15,2013-10-12 02:30:00,
2013-10-11 22:40:00,63.7,62.5,29.96,NW,318,0.0,0.0,96,0.00,,,0.00,Wunderground v.1.15,2013-10-12 02:40:00,
2013-10-11 22:45:00,63.7,62.5,29.96,NW,318,0.0,0.0,96,0.00,,,0.00,Wunderground v.1.15,2013-10-12 02:45:00,
2013-10-11 22:50:00,63.7,62.5,29.96,NW,318,0.0,0.0,96,0.00,,,0.00,Wunderground v.1.15,2013-10-12 02:50:00,
2013-10-11 23:05:00,63.5,62.3,29.96,NW,318,0.0,0.0,96,0.00,,,0.00,Wunderground v.1.15,2013-10-12 03:05:00,
2013-10-11 23:10:00,63.5,62.3,29.96,NW,318,0.0,0.0,96,0.00,,,0.00,Wunderground v.1.15,2013-10-12 03:10:00,
2013-10-11 23:20:00,63.5,62.3,29.95,NW,318,0.0,0.0,96,0.00,,,0.00,Wunderground v.1.15,2013-10-12 03:20:00,
2013-10-11 23:25:00,63.5,62.3,29.95,NW,318,0.0,0.0,96,0.00,,,0.00,Wunderground v.1.15,2013-10-12 03:25:00,
2013-10-11 23:30:00,63.5,62.3,29.95,NW,318,0.0,0.0,96,0.00,,,0.00,Wunderground v.1.15,2013-10-12 03:30:00,
2013-10-11 23:35:00,63.5,62.3,29.95,NW,318,0.0,0.0,96,0.00,,,0.00,Wunderground v.1.15,2013-10-12 03:35:00,
2013-10-11 23:40:00,63.5,62.3,29.95,NW,318,0.0,0.0,96,0.00,,,0.00,Wunderground v.1.15,2013-10-12 03:40:00,
2013-10-11 23:50:00,63.4,62.2,29.95,NW,318,0.0,0.0,96,0.00,,,0.00,Wunderground v.1.15,2013-10-12 03:50:00,
2013-10-11 23:55:00,63.4,62.2,29.95,NW,318,0.0,0.0,96,0.00,,,0.00,Wunderground v.1.15,2013-10-12 03:55:00,